N5DUP Weather Reports


Display with metric or nautical units.
time (UTC)temp
F
wind
direction
speed
MPH
gust
MPH
rain 1hr
in
rain 24hr
in
rain mn
in
humidity
%
barometer
mb
20260903143320 85 216 8.0 15.0 0.00 0.00 0.00 49 1012.7
20260903141810 84 217 9.0 14.0 0.00 0.00 0.00 51 1012.7
20260903140302 83 214 7.0 11.0 0.00 0.00 0.00 53 1012.8
20260903134813 82 204 7.0 10.0 0.00 0.00 0.00 55 1012.8
20260903133303 81 205 7.0 11.0 0.00 0.00 0.00 56 1012.8
20260903131816 80 221 6.0 11.0 0.00 0.00 0.00 56 1012.8
20260903130307 79 199 4.0 9.0 0.00 0.00 0.00 59 1012.6
20260903124837 78 202 4.0 9.0 0.00 0.00 0.00 61 1012.6
20260903123308 76 179 5.0 6.0 0.00 0.00 0.00 64 1012.5
20260903121820 76 181 5.0 8.0 0.00 0.00 0.00 65 1012.5
20260903120309 76 188 4.0 7.0 0.00 0.00 0.00 66 1012.4
20260903114819 76 180 4.0 7.0 0.00 0.00 0.00 66 1012.3
20260903113332 76 191 5.0 11.0 0.00 0.00 0.00 67 1012.2
20260903111803 76 167 6.0 10.0 0.00 0.00 0.00 66 1012.1
20260903110310 76 171 5.0 11.0 0.00 0.00 0.00 67 1012.2
20260903104806 76 168 6.0 12.0 0.00 0.00 0.00 66 1012.2
20260903103303 77 184 5.0 8.0 0.00 0.00 0.00 65 1012.2
20260903101830 77 186 5.0 10.0 0.00 0.00 0.00 64 1012.1
20260903100308 77 175 5.0 9.0 0.00 0.00 0.00 63 1012.2
20260903094820 77 190 6.0 10.0 0.00 0.00 0.00 62 1012.2
20260903093316 78 200 4.0 12.0 0.00 0.00 0.00 61 1012.2
20260903091830 78 198 7.0 12.0 0.00 0.00 0.00 60 1012.3
20260903090320 78 185 6.0 12.0 0.00 0.00 0.00 59 1012.3
20260903084812 79 172 6.0 9.0 0.00 0.00 0.00 59 1012.3
20260903083329 79 175 6.0 11.0 0.00 0.00 0.00 57 1012.5
20260903081802 79 178 5.0 9.0 0.00 0.00 0.00 56 1012.6
20260903080314 80 155 4.0 11.0 0.00 0.00 0.00 55 1012.8
20260903074804 80 159 4.0 12.0 0.00 0.00 0.00 54 1012.6
20260903073340 81 188 4.0 10.0 0.00 0.00 0.00 53 1012.8
20260903071811 81 171 3.0 9.0 0.00 0.00 0.00 52 1013.0
20260903070305 82 188 4.0 9.0 0.00 0.00 0.00 51 1013.1
20260903064818 82 191 4.0 11.0 0.00 0.00 0.00 50 1013.1
20260903063313 83 186 3.0 9.0 0.00 0.00 0.00 49 1013.4
20260903061802 84 175 3.0 7.0 0.00 0.00 0.00 47 1013.2
20260903060315 85 191 4.0 8.0 0.00 0.00 0.00 47 1013.1
20260903054804 85 174 4.0 8.0 0.00 0.00 0.00 45 1013.0
20260903053301 86 178 4.0 9.0 0.00 0.00 0.00 44 1013.2
20260903051812 86 183 4.0 7.0 0.00 0.00 0.00 43 1013.1
20260903050306 86 178 1.0 6.0 0.00 0.00 0.00 43 1013.0
20260903044815 87 178 2.0 7.0 0.00 0.00 0.00 42 1012.9
20260903043311 87 178 2.0 7.0 0.00 0.00 0.00 41 1012.9
20260903041826 88 186 3.0 6.0 0.00 0.00 0.00 40 1013.0
20260903040319 88 161 3.0 8.0 0.00 0.00 0.00 39 1012.9
20260903034812 89 213 3.0 10.0 0.00 0.00 0.00 38 1012.9
20260903033306 89 176 2.0 7.0 0.00 0.00 0.00 37 1012.9
20260903031820 90 292 1.0 7.0 0.00 0.00 0.00 36 1012.8
20260903030313 90 178 2.0 5.0 0.00 0.00 0.00 36 1012.7
20260903024809 90 130 1.0 5.0 0.00 0.00 0.00 35 1012.6
20260903023320 90 126 1.0 4.0 0.00 0.00 0.00 34 1012.4
20260903021812 91 131 1.0 6.0 0.00 0.00 0.00 33 1012.2
20260903020306 92 161 1.0 4.0 0.00 0.00 0.00 31 1011.9
20260903014842 92 183 1.0 3.0 0.00 0.00 0.00 31 1011.8
20260903013334 92 157 1.0 3.0 0.00 0.00 0.00 31 1011.7
20260903011807 94 95 0.0 2.0 0.00 0.00 0.00 30 1011.7
20260903010321 95 96 1.0 4.0 0.00 0.00 0.00 28 1011.5
20260903004816 96 82 2.0 5.0 0.00 0.00 0.00 27 1011.5
20260903003314 96 102 1.0 6.0 0.00 0.00 0.00 26 1011.5
20260903001809 97 165 1.0 7.0 0.00 0.00 0.00 25 1011.4
20260903000342 98 103 2.0 9.0 0.00 0.00 0.00 24 1011.3
20260902234809 98 90 3.0 9.0 0.00 0.00 0.00 24 1011.2
20260902233320 99 76 3.0 7.0 0.00 0.00 0.00 23 1011.3
20260902231857 99 187 2.0 6.0 0.00 0.00 0.00 22 1011.3
20260902230310 99 140 2.0 3.0 0.00 0.00 0.00 23 1011.3
20260902224804 99 96 2.0 8.0 0.00 0.00 0.00 22 1011.5
20260902223317 98 92 3.0 8.0 0.00 0.00 0.00 23 1011.5
20260902221806 100 71 3.0 8.0 0.00 0.00 0.00 23 1011.6
20260902220320 99 109 2.0 10.0 0.00 0.00 0.00 23 1011.7
20260902214811 99 76 6.0 14.0 0.00 0.00 0.00 23 1011.8
20260902213310 100 186 3.0 8.0 0.00 0.00 0.00 22 1011.9
20260902211818 101 108 1.0 5.0 0.00 0.00 0.00 22 1012.0
20260902210313 100 138 1.0 8.0 0.00 0.00 0.00 22 1012.3
20260902204807 101 192 2.0 10.0 0.00 0.00 0.00 21 1012.5
20260902203303 101 76 3.0 12.0 0.00 0.00 0.00 21 1012.9
20260902201813 101 217 5.0 10.0 0.00 0.00 0.00 23 1012.9
20260902200307 100 175 3.0 13.0 0.00 0.00 0.00 23 1013.2
20260902194818 101 95 3.0 8.0 0.00 0.00 0.00 23 1013.4
20260902193311 101 360 1.0 5.0 0.00 0.00 0.00 22 1013.7
20260902191805 100 180 3.0 8.0 0.00 0.00 0.00 23 1014.1
20260902190333 99 170 7.0 15.0 0.00 0.00 0.00 24 1014.1
20260902184808 99 221 2.0 8.0 0.00 0.00 0.00 24 1014.5
20260902183318 99 175 3.0 7.0 0.00 0.00 0.00 24 1014.7
20260902181809 98 224 4.0 8.0 0.00 0.00 0.00 25 1014.9
20260902180301 99 178 2.0 7.0 0.00 0.00 0.00 25 1015.3
20260902174811 98 181 3.0 7.0 0.00 0.00 0.00 26 1015.4
20260902173302 97 198 5.0 10.0 0.00 0.00 0.00 29 1015.6
20260902171834 96 175 6.0 14.0 0.00 0.00 0.00 30 1015.7
20260902170322 95 223 4.0 9.0 0.00 0.00 0.00 32 1015.9
20260902164809 94 183 6.0 10.0 0.00 0.00 0.00 33 1016.1
20260902163303 94 194 4.0 9.0 0.00 0.00 0.00 34 1016.2
20260902161813 92 196 5.0 9.0 0.00 0.00 0.00 36 1016.2
20260902160304 91 204 5.0 10.0 0.00 0.00 0.00 37 1016.1
20260902154812 90 217 4.0 16.0 0.00 0.00 0.00 40 1016.1
20260902153305 89 215 6.0 12.0 0.00 0.00 0.00 41 1016.2
20260902151813 88 205 5.0 10.0 0.00 0.00 0.00 45 1016.1
20260902150303 87 208 5.0 10.0 0.00 0.00 0.00 47 1016.1
20260902144817 85 220 5.0 10.0 0.00 0.00 0.00 49 1016.0